Regional Weather Roundup
Issued by NWS Sterling, VA

Home | Current Version | Previous Version | Graphics & Text | Print | Product List | Glossary On
Versions: 1 2 3 4 5 6 7 8 9 10 11 12 13 14 15 16 17 18 19 20 21 22 23 24 25
000
ASUS41 KLWX 290411
RWRLWX

REGIONAL WEATHER ROUNDUP
NATIONAL WEATHER SERVICE BALTIMORE MD/WASHINGTON DC
1200 AM EDT THU JUN 29 2017

Note: "FAIR" indicates few or no clouds below 12,000 feet
with no significant weather and/or obstructions to visibility.
 TC=TEMPERATURE CELSIUS

 * =Non NWS site. Station does not report precipitation (e.g. rain,
    snow, etc.), thunder, or fog.

DCZ001-MDZ009-015-VAZ040>042-051-053>054-290500-
WASHINGTON METRO

CITY           SKY/WX    TMP DP  RH WIND       PRES   REMARKS
WASHINGTON NAT PTCLDY    71  59  65 S12       30.16S
DULLES         MOCLDY    68  52  56 S8        30.14F
ANDREWS AFB    CLEAR     66  55  69 S8        30.15F
FT BELVOIR     PTCLDY    67  56  69 S5        30.15F
QUANTICO       CLEAR     73  62  68 S15       30.17S
COLLEGE PARK*  CLEAR     70  55  59 S3        30.15F
LEESBURG*      PTCLDY    68  57  68 S6        30.16S
MANASSAS*      CLOUDY    62  55  77 S3        30.15F
GAITHERSBURG*  CLEAR     68  55  63 SE9       30.16F

$$

MDZ006>007-011-014-290500-
BALTIMORE METRO

CITY           SKY/WX    TMP DP  RH WIND       PRES   REMARKS
BWI AIRPORT    PTCLDY    68  56  65 SW3       30.15S
MD SCIENCE CTR   N/A     72  56  57 MISG      30.15S
MARTIN STATE   CLEAR     70  59  68 S6        30.16F
ANNAPOLIS      CLEAR     67  57  70 S6        30.15F
FORT MEADE*    CLEAR     59  55  88 CALM      30.18F

$$

MDZ012-015-019>023-290500-
MARYLAND EASTERN SHORE

CITY           SKY/WX    TMP DP  RH WIND       PRES   REMARKS
OCEAN CITY     CLEAR     66  59  78 SW5       30.20S
SALISBURY      PTCLDY    62  57  83 S6        30.19S
BAY BRIDGE AP* CLEAR     72  57  60 S9G17     30.16S
CAMBRIDGE*     CLEAR     64  57  77 S3        30.17F
EASTON*        CLEAR     66  56  69 SW5       30.20S

$$

MDZ017>025-290500-
SOUTHERN MARYLAND

CITY           SKY/WX    TMP DP  RH WIND       PRES   REMARKS
PATUXENT RIVER CLEAR     69  57  65 S8        30.17S
ST INIGOES     CLEAR     72  58  61 S10       30.17S
LEONARDTOWN*   CLEAR     66  55  68 S3        30.20R

$$

MDZ003>005-290500-
NORTH CENTRAL MARYLAND

CITY           SKY/WX    TMP DP  RH WIND       PRES   REMARKS
FREDERICK*     CLEAR     64  52  63 S5        30.16S
HAGERSTOWN APT CLEAR     69  54  58 S7        30.12F
WESTMINSTER*   CLEAR     68  55  64 S7        30.14F

$$

MDZ501>502-290500-
WESTERN MARYLAND

CITY           SKY/WX    TMP DP  RH WIND       PRES   REMARKS
OAKLAND*       CLEAR     55  45  67 S6        30.05R
CUMBERLAND*    CLEAR     61  55  82 CALM      30.16R

$$

VAZ025>031-290500-
SHENANDOAH VALLEY

CITY           SKY/WX    TMP DP  RH WIND       PRES   REMARKS
WINCHESTER*    CLEAR     63  52  67 CALM      30.13S
FRONT ROYAL*   CLEAR     66  54  63 SW5       30.13S
LURAY*         CLEAR     66  54  63 SW5       30.16S
NEW MARKET*    CLEAR     61  54  78 SW3       30.16R
STAUNTON*      CLOUDY    59  52  77 SW3       30.20S
WAYNESBORO*    CLOUDY    64  54  69 S8        30.19F

$$

WVZ021-048>050-054>055-290500-
EASTERN WEST VIRGINIA PANHANDLE

CITY           SKY/WX    TMP DP  RH WIND       PRES   REMARKS
MARTINSBURG    CLEAR     62  53  72 CALM      30.12S
PETERSBURG*    CLEAR     58  56  91 CALM      30.14S

$$

VAZ036>039-050-290500-
CENTRAL FOOTHILLS

CITY           SKY/WX    TMP DP  RH WIND       PRES   REMARKS
CHARLOTTESVILL CLOUDY    67  56  67 S3        30.16F
CULPEPER*      CLOUDY    60  56  85 CALM      30.17S
ORANGE*        CLOUDY    59  54  82 CALM      30.17F
GORDONSVILLE*  CLOUDY    61  57  86 CALM      30.16F
WARRENTON*     CLOUDY    67  51  56 SE3       30.15F

$$

VAZ055>057-290500-
NORTH AND CENTRAL PIEDMONT

CITY           SKY/WX    TMP DP  RH WIND       PRES   REMARKS
FREDERICKSBRG* PTCLDY    64  57  77 S7        30.16F
STAFFORD*      CLOUDY    58  56  95 CALM      30.20F

$$

NCZ024-NYZ072-PAZ021-071-VAZ022-071-290500-
OTHER REGIONAL OBSERVATIONS

CITY           SKY/WX    TMP DP  RH WIND       PRES   REMARKS
NEW YORK CITY  PTCLDY    73  50  44 CALM      30.15R
PHILADELPHIA   CLOUDY    70  58  65 S7        30.15S
PITTSBURGH     MOCLDY    62  54  74 S3        30.08F
ROANOKE        PTCLDY    69  56  62 SE3       30.21F
RICHMOND       PTCLDY    66  58  75 SE9       30.19S
RALEIGH        PTCLDY    64  57  78 CALM      30.21R

$$

ANZ530>537-290500-
MARINE OBSERVATIONS

STATION/POSITION TIME  TEMP    WIND        PRES
                       AIR SEA DIR/SP/G
                 (UTC) (F)     (DEG/KT/KT) (MB)
THOMAS PT LIGHT  0400   73 76  200/ 20/ 21   N/A
BALT KEY BRIDGE  0348   70     200/ 10/ 12 1020.5S
COVE POINT       0348   71     210/ 12/ 15 1022.3F
LEWISETTA        0348   70 78  200/  9/ 10 1021.9F
SOLOMONS ISLAND  0348   71 78  200/ 13/ 15   N/A
PINEY POINT      0348          200/ 14/ 16   N/A

$$





USA.gov is the U.S. government's official web portal to all federal, state and local government web resources and services.